| time (UTC) | temp C | wind direction | speed KPH | gust KPH | rain 1hr cm | rain 24hr cm | rain mn cm | humidity % | barometer mb |
| 20260505071634 | 17 | 106 | 3.2 | 3.2 | 0.00 | 0.00 | 0.00 | 75 | 1045.4 |
| 20260505071132 | 18 | 104 | 0.0 | 3.2 | 0.00 | 0.00 | 0.00 | 75 | 1045.4 |
| 20260505070629 | 18 | 115 | 3.2 | 4.8 | 0.00 | 0.00 | 0.00 | 74 | 1045.3 |
| 20260505070125 | 18 | 126 | 3.2 | 4.8 | 0.00 | 0.00 | 0.00 | 74 | 1045.5 |
| 20260505065621 | 17 | 110 | 3.2 | 4.8 | 0.00 | 0.00 | 0.00 | 74 | 1045.5 |
| 20260505065118 | 17 | 131 | 0.0 | 3.2 | 0.00 | 0.00 | 0.00 | 74 | 1045.5 |
| 20260505064615 | 17 | 151 | 3.2 | 3.2 | 0.00 | 0.00 | 0.00 | 74 | 1045.4 |
| 20260505064114 | 17 | 127 | 3.2 | 3.2 | 0.00 | 0.00 | 0.00 | 74 | 1045.3 |
| 20260505063610 | 17 | 200 | 1.6 | 4.8 | 0.00 | 0.00 | 0.00 | 74 | 1045.1 |
| 20260505063106 | 17 | 178 | 1.6 | 4.8 | 0.00 | 0.00 | 0.00 | 75 | 1045.3 |
| 20260505062603 | 17 | 175 | 3.2 | 4.8 | 0.00 | 0.00 | 0.00 | 75 | 1045.0 |
| 20260505062100 | 17 | 192 | 4.8 | 6.4 | 0.00 | 0.00 | 0.00 | 75 | 1044.9 |
| 20260505061557 | 17 | 178 | 4.8 | 6.4 | 0.00 | 0.00 | 0.00 | 75 | 1045.0 |
| 20260505061055 | 17 | 184 | 4.8 | 8.0 | 0.00 | 0.00 | 0.00 | 75 | 1044.6 |
| 20260505060553 | 17 | 199 | 4.8 | 9.7 | 0.00 | 0.00 | 0.00 | 76 | 1044.8 |
| 20260505060049 | 17 | 199 | 4.8 | 9.7 | 0.00 | 0.00 | 0.00 | 76 | 1044.6 |
| 20260505055544 | 17 | 185 | 3.2 | 8.0 | 0.00 | 0.00 | 0.00 | 75 | 1044.7 |
| 20260505055041 | 17 | 202 | 3.2 | 8.0 | 0.00 | 0.00 | 0.00 | 75 | 1044.6 |
| 20260505054539 | 17 | 190 | 3.2 | 6.4 | 0.00 | 0.00 | 0.00 | 74 | 1044.7 |
| 20260505054037 | 17 | 160 | 3.2 | 6.4 | 0.00 | 0.00 | 0.00 | 74 | 1045.0 |
| 20260505053534 | 17 | 178 | 3.2 | 6.4 | 0.00 | 0.00 | 0.00 | 75 | 1045.1 |
| 20260505053030 | 17 | 204 | 3.2 | 4.8 | 0.00 | 0.00 | 0.00 | 76 | 1045.4 |
| 20260505052527 | 17 | 194 | 3.2 | 6.4 | 0.00 | 0.00 | 0.00 | 74 | 1045.2 |
| 20260505052025 | 18 | 150 | 4.8 | 9.7 | 0.00 | 0.00 | 0.00 | 73 | 1045.0 |
| 20260505051521 | 18 | 149 | 3.2 | 6.4 | 0.00 | 0.00 | 0.00 | 72 | 1045.2 |
| 20260505051020 | 18 | 141 | 3.2 | 3.2 | 0.00 | 0.00 | 0.00 | 72 | 1045.0 |
| 20260505050517 | 18 | 160 | 3.2 | 3.2 | 0.00 | 0.00 | 0.00 | 72 | 1045.3 |
| 20260505041445 | 19 | 217 | 3.2 | 9.7 | 0.00 | 0.00 | 0.00 | 68 | 1045.4 |
| 20260505040942 | 20 | 231 | 6.4 | 12.9 | 0.00 | 0.00 | 0.00 | 67 | 1045.5 |
| 20260505040440 | 20 | 220 | 9.7 | 9.7 | 0.00 | 0.00 | 0.00 | 66 | 1045.6 |
| 20260505035936 | 20 | 217 | 4.8 | 9.7 | 0.00 | 0.00 | 0.00 | 66 | 1045.5 |
| 20260505035432 | 20 | 205 | 6.4 | 8.0 | 0.00 | 0.00 | 0.00 | 66 | 1045.4 |
| 20260505034930 | 20 | 193 | 9.7 | 9.7 | 0.00 | 0.00 | 0.00 | 66 | 1045.7 |
| 20260505034426 | 20 | 231 | 6.4 | 9.7 | 0.00 | 0.00 | 0.00 | 66 | 1045.7 |
| 20260505033924 | 20 | 203 | 3.2 | 6.4 | 0.00 | 0.00 | 0.00 | 68 | 1045.7 |
| 20260505033420 | 20 | 205 | 3.2 | 6.4 | 0.00 | 0.00 | 0.00 | 67 | 1046.0 |
| 20260505032918 | 20 | 248 | 3.2 | 8.0 | 0.00 | 0.00 | 0.00 | 65 | 1046.0 |
| 20260505032415 | 20 | 225 | 3.2 | 6.4 | 0.00 | 0.00 | 0.00 | 63 | 1045.7 |
| 20260505031911 | 21 | 178 | 4.8 | 8.0 | 0.00 | 0.00 | 0.00 | 62 | 1045.6 |
| 20260505031408 | 21 | 228 | 4.8 | 8.0 | 0.00 | 0.00 | 0.00 | 62 | 1045.7 |
| 20260505030905 | 21 | 174 | 8.0 | 9.7 | 0.00 | 0.00 | 0.00 | 61 | 1045.6 |
| 20260505030401 | 21 | 183 | 6.4 | 9.7 | 0.00 | 0.00 | 0.00 | 61 | 1045.5 |
| 20260505025857 | 21 | 178 | 8.0 | 12.9 | 0.00 | 0.00 | 0.00 | 61 | 1045.3 |
| 20260505025355 | 21 | 181 | 4.8 | 9.7 | 0.00 | 0.00 | 0.00 | 60 | 1045.6 |
| 20260505024853 | 21 | 189 | 4.8 | 8.0 | 0.00 | 0.00 | 0.00 | 60 | 1045.6 |
| 20260505024350 | 21 | 200 | 11.3 | 14.5 | 0.00 | 0.00 | 0.00 | 59 | 1045.6 |
| 20260505023847 | 21 | 208 | 6.4 | 14.5 | 0.00 | 0.00 | 0.00 | 61 | 1045.3 |
| 20260505023345 | 21 | 205 | 11.3 | 14.5 | 0.00 | 0.00 | 0.00 | 59 | 1045.4 |
| 20260505022842 | 21 | 212 | 6.4 | 11.3 | 0.00 | 0.00 | 0.00 | 59 | 1045.2 |
| 20260505022338 | 22 | 220 | 8.0 | 17.7 | 0.00 | 0.00 | 0.00 | 58 | 1045.3 |
| 20260505021836 | 22 | 224 | 14.5 | 17.7 | 0.00 | 0.00 | 0.00 | 57 | 1045.0 |
| 20260505021332 | 22 | 200 | 8.0 | 19.3 | 0.00 | 0.00 | 0.00 | 57 | 1044.8 |
| 20260505020828 | 22 | 179 | 3.2 | 16.1 | 0.00 | 0.00 | 0.00 | 58 | 1044.8 |
| 20260505020324 | 22 | 213 | 9.7 | 19.3 | 0.00 | 0.00 | 0.00 | 57 | 1044.8 |
| 20260505015821 | 22 | 208 | 11.3 | 19.3 | 0.00 | 0.00 | 0.00 | 57 | 1044.6 |
| 20260505015318 | 22 | 200 | 9.7 | 20.9 | 0.00 | 0.00 | 0.00 | 57 | 1044.6 |
| 20260505014815 | 22 | 208 | 11.3 | 17.7 | 0.00 | 0.00 | 0.00 | 57 | 1044.6 |
| 20260505014312 | 22 | 222 | 11.3 | 14.5 | 0.00 | 0.00 | 0.00 | 58 | 1044.4 |
| 20260505013808 | 22 | 203 | 9.7 | 17.7 | 0.00 | 0.00 | 0.00 | 57 | 1044.5 |
| 20260505013306 | 22 | 218 | 9.7 | 14.5 | 0.00 | 0.00 | 0.00 | 58 | 1044.4 |
| 20260505012804 | 22 | 208 | 6.4 | 11.3 | 0.00 | 0.00 | 0.00 | 58 | 1044.3 |
| 20260505012304 | 22 | 202 | 9.7 | 11.3 | 0.00 | 0.00 | 0.00 | 58 | 1044.2 |
| 20260505011757 | 22 | 215 | 9.7 | 9.7 | 0.00 | 0.00 | 0.00 | 58 | 1044.4 |
| 20260505011254 | 22 | 204 | 3.2 | 12.9 | 0.00 | 0.00 | 0.00 | 58 | 1044.2 |
| 20260505010750 | 22 | 213 | 6.4 | 14.5 | 0.00 | 0.00 | 0.00 | 57 | 1044.3 |
| 20260505010247 | 22 | 213 | 9.7 | 14.5 | 0.00 | 0.00 | 0.00 | 56 | 1044.1 |
| 20260505005743 | 22 | 213 | 8.0 | 9.7 | 0.00 | 0.00 | 0.00 | 55 | 1044.0 |
| 20260505005240 | 23 | 222 | 12.9 | 19.3 | 0.00 | 0.00 | 0.00 | 54 | 1043.9 |
| 20260505004737 | 23 | 228 | 11.3 | 17.7 | 0.00 | 0.00 | 0.00 | 53 | 1043.9 |
| 20260505004233 | 23 | 231 | 12.9 | 17.7 | 0.00 | 0.00 | 0.00 | 53 | 1043.8 |
| 20260505003730 | 23 | 211 | 19.3 | 22.5 | 0.00 | 0.00 | 0.00 | 52 | 1043.8 |
| 20260505003228 | 23 | 203 | 8.0 | 14.5 | 0.00 | 0.00 | 0.00 | 53 | 1043.7 |
| 20260505002724 | 23 | 195 | 8.0 | 17.7 | 0.00 | 0.00 | 0.00 | 52 | 1043.7 |
| 20260505002222 | 24 | 221 | 14.5 | 20.9 | 0.00 | 0.00 | 0.00 | 52 | 1043.8 |
| 20260505001719 | 23 | 210 | 9.7 | 20.9 | 0.00 | 0.00 | 0.00 | 52 | 1043.9 |
| 20260505001217 | 24 | 213 | 14.5 | 29.0 | 0.00 | 0.00 | 0.00 | 51 | 1043.8 |
| 20260505000714 | 24 | 216 | 9.7 | 24.1 | 0.00 | 0.00 | 0.00 | 52 | 1043.8 |
| 20260505000211 | 24 | 203 | 14.5 | 29.0 | 0.00 | 0.00 | 0.00 | 51 | 1043.8 |
| 20260504235708 | 25 | 216 | 14.5 | 22.5 | 0.00 | 0.00 | 0.00 | 51 | 1043.9 |
| 20260504235204 | 25 | 209 | 9.7 | 32.2 | 0.00 | 0.00 | 0.00 | 51 | 1043.8 |
| 20260504234701 | 25 | 221 | 16.1 | 25.7 | 0.00 | 0.00 | 0.00 | 51 | 1043.8 |
| 20260504234158 | 25 | 213 | 9.7 | 19.3 | 0.00 | 0.00 | 0.00 | 53 | 1044.0 |
| 20260504233654 | 25 | 218 | 14.5 | 24.1 | 0.00 | 0.00 | 0.00 | 50 | 1044.0 |
| 20260504233150 | 25 | 211 | 11.3 | 19.3 | 0.00 | 0.00 | 0.00 | 50 | 1043.9 |
| 20260504232648 | 25 | 196 | 9.7 | 20.9 | 0.00 | 0.00 | 0.00 | 52 | 1043.8 |
| 20260504232145 | 25 | 175 | 17.7 | 19.3 | 0.00 | 0.00 | 0.00 | 50 | 1043.9 |
| 20260504231642 | 25 | 207 | 12.9 | 19.3 | 0.00 | 0.00 | 0.00 | 51 | 1044.2 |
| 20260504231138 | 25 | 200 | 20.9 | 29.0 | 0.00 | 0.00 | 0.00 | 49 | 1044.2 |
| 20260504230634 | 26 | 195 | 12.9 | 25.7 | 0.00 | 0.00 | 0.00 | 50 | 1044.1 |
| 20260504230133 | 26 | 220 | 14.5 | 19.3 | 0.00 | 0.00 | 0.00 | 50 | 1044.3 |
| 20260504225631 | 26 | 198 | 12.9 | 22.5 | 0.00 | 0.00 | 0.00 | 51 | 1044.1 |
| 20260504225127 | 26 | 225 | 6.4 | 20.9 | 0.00 | 0.00 | 0.00 | 51 | 1044.3 |
| 20260504224624 | 26 | 220 | 6.4 | 16.1 | 0.00 | 0.00 | 0.00 | 52 | 1044.2 |
| 20260504224120 | 26 | 190 | 6.4 | 14.5 | 0.00 | 0.00 | 0.00 | 52 | 1044.1 |
| 20260504223617 | 26 | 198 | 8.0 | 20.9 | 0.00 | 0.00 | 0.00 | 53 | 1044.1 |
| 20260504223113 | 25 | 208 | 9.7 | 17.7 | 0.00 | 0.00 | 0.00 | 53 | 1044.4 |
| 20260504222611 | 25 | 226 | 16.1 | 24.1 | 0.00 | 0.00 | 0.00 | 52 | 1044.4 |
| 20260504222108 | 26 | 222 | 11.3 | 17.7 | 0.00 | 0.00 | 0.00 | 52 | 1044.4 |
| 20260504221605 | 26 | 211 | 9.7 | 14.5 | 0.00 | 0.00 | 0.00 | 50 | 1044.2 |
| 20260504221101 | 26 | 212 | 8.0 | 20.9 | 0.00 | 0.00 | 0.00 | 52 | 1044.2 |
| 20260504220558 | 25 | 228 | 12.9 | 24.1 | 0.00 | 0.00 | 0.00 | 51 | 1044.2 |
| 20260504220055 | 25 | 210 | 11.3 | 25.7 | 0.00 | 0.00 | 0.00 | 50 | 1044.2 |
| 20260504215552 | 26 | 249 | 20.9 | 32.2 | 0.00 | 0.00 | 0.00 | 48 | 1044.4 |
| 20260504215049 | 26 | 213 | 14.5 | 25.7 | 0.00 | 0.00 | 0.00 | 49 | 1044.4 |
| 20260504214544 | 26 | 233 | 24.1 | 30.6 | 0.00 | 0.00 | 0.00 | 47 | 1044.3 |
| 20260504214041 | 26 | 238 | 8.0 | 14.5 | 0.00 | 0.00 | 0.00 | 53 | 1044.3 |
| 20260504213538 | 26 | 215 | 9.7 | 22.5 | 0.00 | 0.00 | 0.00 | 51 | 1044.3 |
| 20260504213035 | 26 | 254 | 20.9 | 27.4 | 0.00 | 0.00 | 0.00 | 48 | 1044.5 |
| 20260504212531 | 26 | 228 | 11.3 | 30.6 | 0.00 | 0.00 | 0.00 | 50 | 1044.3 |
| 20260504212028 | 26 | 202 | 12.9 | 29.0 | 0.00 | 0.00 | 0.00 | 49 | 1044.5 |
| 20260504211525 | 26 | 201 | 16.1 | 30.6 | 0.00 | 0.00 | 0.00 | 48 | 1044.4 |
| 20260504211022 | 26 | 221 | 9.7 | 29.0 | 0.00 | 0.00 | 0.00 | 50 | 1044.5 |
| 20260504210519 | 26 | 226 | 19.3 | 33.8 | 0.00 | 0.00 | 0.00 | 48 | 1044.5 |
| 20260504210016 | 26 | 215 | 17.7 | 41.8 | 0.00 | 0.00 | 0.00 | 48 | 1044.4 |
| 20260504205514 | 26 | 216 | 27.4 | 35.4 | 0.00 | 0.00 | 0.00 | 48 | 1044.8 |
| 20260504205012 | 26 | 229 | 22.5 | 30.6 | 0.00 | 0.00 | 0.00 | 48 | 1044.6 |
| 20260504204509 | 27 | 217 | 29.0 | 37.0 | 0.00 | 0.00 | 0.00 | 47 | 1044.5 |
| 20260504204008 | 26 | 212 | 19.3 | 33.8 | 0.00 | 0.00 | 0.00 | 49 | 1044.7 |
| 20260504203506 | 27 | 181 | 16.1 | 27.4 | 0.00 | 0.00 | 0.00 | 50 | 1044.8 |
| 20260504203002 | 27 | 229 | 16.1 | 27.4 | 0.00 | 0.00 | 0.00 | 49 | 1044.7 |
| 20260504202458 | 26 | 234 | 22.5 | 37.0 | 0.00 | 0.00 | 0.00 | 48 | 1044.6 |
| 20260504201955 | 26 | 210 | 12.9 | 24.1 | 0.00 | 0.00 | 0.00 | 51 | 1044.9 |
| 20260504201452 | 25 | 228 | 16.1 | 37.0 | 0.00 | 0.00 | 0.00 | 49 | 1045.0 |
| 20260504200950 | 26 | 235 | 30.6 | 33.8 | 0.00 | 0.00 | 0.00 | 47 | 1045.1 |
| 20260504200446 | 26 | 218 | 27.4 | 40.2 | 0.00 | 0.00 | 0.00 | 48 | 1044.9 |
| 20260504195943 | 26 | 223 | 30.6 | 32.2 | 0.00 | 0.00 | 0.00 | 48 | 1044.9 |
| 20260504195439 | 26 | 208 | 33.8 | 41.8 | 0.00 | 0.00 | 0.00 | 48 | 1045.2 |
| 20260504194936 | 27 | 199 | 16.1 | 30.6 | 0.00 | 0.00 | 0.00 | 48 | 1045.2 |
| 20260504194432 | 27 | 211 | 24.1 | 33.8 | 0.00 | 0.00 | 0.00 | 47 | 1045.1 |
| 20260504193928 | 26 | 217 | 17.7 | 33.8 | 0.00 | 0.00 | 0.00 | 47 | 1045.3 |
| 20260504193425 | 26 | 224 | 20.9 | 32.2 | 0.00 | 0.00 | 0.00 | 48 | 1045.2 |
| 20260504192924 | 26 | 205 | 22.5 | 29.0 | 0.00 | 0.00 | 0.00 | 46 | 1045.4 |
| 20260504192421 | 26 | 215 | 17.7 | 30.6 | 0.00 | 0.00 | 0.00 | 50 | 1045.4 |
| 20260504191920 | 26 | 205 | 24.1 | 32.2 | 0.00 | 0.00 | 0.00 | 47 | 1045.4 |
| 20260504191417 | 26 | 226 | 20.9 | 37.0 | 0.00 | 0.00 | 0.00 | 49 | 1045.4 |
| 20260504190912 | 26 | 237 | 20.9 | 29.0 | 0.00 | 0.00 | 0.00 | 50 | 1045.6 |
| 20260504190408 | 26 | 256 | 20.9 | 33.8 | 0.00 | 0.00 | 0.00 | 50 | 1045.5 |
| 20260504185905 | 26 | 211 | 19.3 | 30.6 | 0.00 | 0.00 | 0.00 | 49 | 1045.8 |
| 20260504185402 | 26 | 229 | 14.5 | 30.6 | 0.00 | 0.00 | 0.00 | 52 | 1045.7 |
| 20260504184858 | 26 | 207 | 14.5 | 37.0 | 0.00 | 0.00 | 0.00 | 49 | 1045.8 |
| 20260504184354 | 26 | 238 | 16.1 | 27.4 | 0.00 | 0.00 | 0.00 | 49 | 1045.8 |
| 20260504183850 | 26 | 216 | 8.0 | 30.6 | 0.00 | 0.00 | 0.00 | 50 | 1045.9 |
| 20260504183348 | 26 | 182 | 17.7 | 27.4 | 0.00 | 0.00 | 0.00 | 46 | 1046.1 |
| 20260504182845 | 26 | 232 | 22.5 | 29.0 | 0.00 | 0.00 | 0.00 | 47 | 1046.0 |
| 20260504182342 | 26 | 222 | 22.5 | 33.8 | 0.00 | 0.00 | 0.00 | 49 | 1045.8 |
| 20260504181839 | 26 | 221 | 11.3 | 32.2 | 0.00 | 0.00 | 0.00 | 50 | 1045.9 |
| 20260504181337 | 25 | 224 | 24.1 | 37.0 | 0.00 | 0.00 | 0.00 | 49 | 1046.0 |
| 20260504180835 | 25 | 217 | 16.1 | 27.4 | 0.00 | 0.00 | 0.00 | 52 | 1046.2 |
| 20260504180333 | 25 | 203 | 17.7 | 25.7 | 0.00 | 0.00 | 0.00 | 51 | 1046.1 |
| 20260504175831 | 25 | 256 | 14.5 | 24.1 | 0.00 | 0.00 | 0.00 | 51 | 1046.0 |
| 20260504175328 | 25 | 217 | 20.9 | 30.6 | 0.00 | 0.00 | 0.00 | 51 | 1046.0 |
| 20260504174826 | 26 | 207 | 9.7 | 32.2 | 0.00 | 0.00 | 0.00 | 53 | 1046.0 |
| 20260504174323 | 26 | 233 | 22.5 | 30.6 | 0.00 | 0.00 | 0.00 | 50 | 1046.0 |
| 20260504173820 | 25 | 197 | 20.9 | 30.6 | 0.00 | 0.00 | 0.00 | 49 | 1045.9 |
| 20260504173317 | 25 | 220 | 27.4 | 32.2 | 0.00 | 0.00 | 0.00 | 50 | 1046.1 |
| 20260504172814 | 25 | 219 | 25.7 | 33.8 | 0.00 | 0.00 | 0.00 | 50 | 1045.8 |
| 20260504172310 | 25 | 237 | 22.5 | 30.6 | 0.00 | 0.00 | 0.00 | 50 | 1045.8 |
| 20260504171806 | 25 | 234 | 25.7 | 30.6 | 0.00 | 0.00 | 0.00 | 48 | 1045.9 |
| 20260504171304 | 25 | 228 | 16.1 | 33.8 | 0.00 | 0.00 | 0.00 | 50 | 1045.9 |
| 20260504170801 | 25 | 215 | 16.1 | 27.4 | 0.00 | 0.00 | 0.00 | 50 | 1046.2 |
| 20260504170258 | 25 | 232 | 19.3 | 32.2 | 0.00 | 0.00 | 0.00 | 51 | 1045.9 |
| 20260504160216 | 24 | 222 | 14.5 | 29.0 | 0.00 | 0.00 | 0.00 | 51 | 1046.3 |
| 20260504151144 | 22 | 215 | 19.3 | 30.6 | 0.00 | 0.00 | 0.00 | 50 | 1046.5 |
| 20260504150641 | 22 | 216 | 20.9 | 29.0 | 0.00 | 0.00 | 0.00 | 53 | 1046.8 |
| 20260504150138 | 22 | 194 | 14.5 | 25.7 | 0.00 | 0.00 | 0.00 | 53 | 1046.8 |
| 20260504141107 | 21 | 212 | 14.5 | 29.0 | 0.00 | 0.00 | 0.00 | 56 | 1047.3 |
| 20260504140603 | 20 | 180 | 20.9 | 25.7 | 0.00 | 0.00 | 0.00 | 54 | 1047.3 |
| 20260504130527 | 18 | 213 | 8.0 | 25.7 | 0.00 | 0.00 | 0.00 | 58 | 1047.8 |
| 20260504110415 | 17 | 205 | 14.5 | 17.7 | 0.00 | 0.00 | 0.00 | 57 | 1048.0 |
| 20260504100331 | 17 | 203 | 12.9 | 14.5 | 0.00 | 0.00 | 0.00 | 55 | 1048.5 |
| 20260504081725 | 18 | 218 | 11.3 | 12.9 | 0.00 | 0.00 | 0.00 | 57 | 1048.7 |
| 20260504081221 | 18 | 216 | 9.7 | 24.1 | 0.00 | 0.00 | 0.00 | 56 | 1048.6 |
| 20260504080718 | 18 | 199 | 9.7 | 20.9 | 0.00 | 0.00 | 0.00 | 57 | 1048.6 |
| 20260504080215 | 18 | 202 | 16.1 | 25.7 | 0.00 | 0.00 | 0.00 | 56 | 1048.6 |